Stations météo

réclame
Mon MeteoGroup
Rostock-Warnemünde, Allemagne (10170): Température de l'air & dewpoint: 12.02.2019 17:00:00 - 18.02.2019 17:00:00 (CET)Rostock-Warnemünde, Allemagne (10170): Température de l'air 5cm & Température de l'air -5cm: 12.02.2019 17:00:00 - 18.02.2019 17:00:00 (CET)Rostock-Warnemünde, Allemagne (10170): Température de l'air -20cm & Température de l'air -100cm: 12.02.2019 17:00:00 - 18.02.2019 17:00:00 (CET)Rostock-Warnemünde, Allemagne (10170): Vitesse du vent & gusts: 12.02.2019 17:00:00 - 18.02.2019 17:00:00 (CET)Rostock-Warnemünde, Allemagne (10170): Direction du vent: 12.02.2019 17:00:00 - 18.02.2019 17:00:00 (CET)Rostock-Warnemünde, Allemagne (10170): reduced air pressure: 12.02.2019 17:00:00 - 18.02.2019 17:00:00 (CET)Rostock-Warnemünde, Allemagne (10170): visibility: 12.02.2019 17:00:00 - 18.02.2019 17:00:00 (CET)Rostock-Warnemünde, Allemagne (10170): Ensoleillement: 12.02.2019 17:00:00 - 18.02.2019 17:00:00 (CET)Rostock-Warnemünde, Allemagne (10170): Quantités de précipitations: 12.02.2019 17:00:00 - 18.02.2019 17:00:00 (CET)
Date & Time tt [°C] td [°C] tt 5cm [°C] tt -5cm [°C] tt -20cm [°C] tt -100cm [°C] ff [km/h] ff [knt] fx [km/h] fx [knt] dd ppp [hPa] vv [km] sd [min] rr [mm]
18.02.2019 17:00:00 12,9 4,0 10,8 8,7 7,3 5,4 7 4 21 11 S 1015,5 15 40 0,0
18.02.2019 16:00:00 13,5 3,5 12,2 10,1 7,0 5,4 13 7 25 14 SSW 1016,1 14 60 0,0
18.02.2019 15:00:00 13,4 3,6 13,8 11,6 6,5 5,4 12 7 20 11 SSW 1016,4 16 60 0,0
18.02.2019 14:00:00 13,4 3,9 15,1 11,6 5,8 5,4 10 6 18 10 S 1017,0 9 60 0,0
18.02.2019 13:00:00 12,3 3,7 14,6 10,4 5,0 5,3 9 5 14 8 SW 1017,9 11 60 0,0
18.02.2019 12:00:00 11,0 2,8 12,4 8,0 4,3 5,3 10 5 16 9 SSW 1018,5 9 60 0,0
18.02.2019 11:00:00 8,7 1,9 10,2 5,5 3,9 5,3 9 5 17 9 SSW 1018,9 11 60 0,0
18.02.2019 10:00:00 6,2 1,6 6,7 3,2 3,7 5,3 11 6 18 10 S 1018,8 9 60 0,0
18.02.2019 09:00:00 4,4 1,2 3,6 1,9 3,8 5,3 13 7 20 11 S 1018,9 7 54 0,0
18.02.2019 08:00:00 3,8 1,1 2,9 1,6 4,0 5,3 14 8 18 10 S 1018,8 7 0 0,0
18.02.2019 07:00:00 4,0 1,4 2,7 1,7 4,2 5,3 14 7 22 12 S 1018,4 7 0 0,0
18.02.2019 06:00:00 3,7 1,5 2,6 1,9 4,4 5,3 14 8 19 11 S 1018,8 6 0 0,0
18.02.2019 05:00:00 4,4 1,7 3,2 2,3 4,7 5,3 12 7 22 12 S 1018,9 7 0 0,0
18.02.2019 04:00:00 4,6 2,0 3,1 2,5 5,0 5,2 11 6 21 11 SSE 1019,1 7 0 0,0
18.02.2019 03:00:00 5,5 2,4 4,1 3,0 5,2 5,2 10 5 23 12 SSE 1019,6 8 0 0,0
18.02.2019 02:00:00 6,0 2,9 4,7 3,4 5,5 5,2 11 6 21 11 SSE 1020,1 8 0 0,0
18.02.2019 01:00:00 5,9 3,5 4,4 3,7 5,7 5,2 9 5 20 11 SSE 1020,4 8 0 0,0
18.02.2019 00:00:00 6,4 4,0 5,2 4,3 6,0 5,2 15 8 26 14 SSE 1020,1 8 0 0,0
17.02.2019 23:00:00 6,8 4,8 5,7 4,6 6,2 5,2 18 10 24 13 SE 1020,8 8 0 0,0
17.02.2019 22:00:00 7,2 5,0 5,7 5,1 6,5 5,2 10 5 23 12 SE 1021,2 8 0 0,0
17.02.2019 21:00:00 8,3 5,6 7,0 5,6 6,8 5,2 16 8 28 15 SSE 1021,3 9 0 0,0
17.02.2019 20:00:00 8,2 5,6 7,0 5,9 7,1 5,1 16 9 24 13 SE 1021,4 8 0 0,0
17.02.2019 19:00:00 8,6 6,0 6,7 6,4 7,4 5,1 12 6 16 9 SE 1021,7 9 0 0,0
17.02.2019 18:00:00 9,5 6,4 7,4 7,3 7,7 5,1 8 5 16 8 ESE 1021,8 10 0 0,0
17.02.2019 17:00:00 11,2 6,5 9,8 8,8 7,8 5,1 8 4 18 10 SSE 1021,9 12 40 0,0
17.02.2019 16:00:00 11,6 6,4 10,8 10,4 7,7 5,1 10 6 18 10 SSE 1022,3 13 53 0,0
17.02.2019 15:00:00 11,8 6,4 11,7 11,3 7,3 5,1 7 4 19 11 S 1022,9 14 28 0,0
17.02.2019 14:00:00 11,2 6,2 11,8 10,5 7,0 5,1 10 5 16 9 S 1023,3 15 1 0,0
17.02.2019 13:00:00 10,3 6,0 10,7 9,5 6,7 5,1 9 5 14 7 SSW 1023,8 10 0 0,0
17.02.2019 12:00:00 10,0 6,1 10,3 8,9 6,4 5,1 8 4 16 9 SSW 1024,2 12 0 0,0
17.02.2019 11:00:00 9,5 6,2 9,8 8,1 6,3 5,1 10 5 16 9 SSW 1024,2 12 0 0,0
17.02.2019 10:00:00 9,4 6,4 9,2 7,5 6,2 5,1 10 5 14 8 SSW 1024,2 12 0 0,0
17.02.2019 09:00:00 9,0 6,0 8,7 7,2 6,1 5,1 11 6 14 8 S 1024,0 11 0 0,0
17.02.2019 08:00:00 8,9 5,9 8,6 7,1 6,1 5,0 10 6 18 10 SSW 1023,6 10 0 0,0
17.02.2019 07:00:00 9,0 5,9 8,6 7,0 6,0 5,0 13 7 21 11 SSW 1023,3 10 0 0,0
17.02.2019 06:00:00 9,3 5,7 8,9 7,0 6,0 5,0 11 6 24 13 SSW 1023,1 10 0 0,0
17.02.2019 05:00:00 9,5 5,7 9,0 7,0 5,9 5,0 16 9 27 14 SW 1023,3 11 0 0,0
17.02.2019 04:00:00 9,6 5,9 9,1 7,0 5,9 5,0 12 6 25 13 SSW 1023,1 12 0 0,0
17.02.2019 03:00:00 10,0 5,9 9,3 6,9 5,8 5,0 10 5 21 12 SW 1023,4 13 0 0,0
17.02.2019 02:00:00 10,0 6,1 9,3 6,9 5,7 5,0 11 6 32 18 SW 1023,4 13 0 0,0
17.02.2019 01:00:00 8,9 5,3 8,5 6,7 5,6 5,0 21 11 40 22 W 1023,6 12 0 0,0
17.02.2019 00:00:00 9,9 5,4 9,1 6,4 5,6 5,0 18 10 31 17 W 1023,3 12 0 0,0
16.02.2019 23:00:00 8,7 3,9 8,2 5,9 5,6 5,0 13 7 20 11 SSW 1023,1 12 0 0,0
16.02.2019 22:00:00 9,2 3,7 8,1 6,0 5,7 5,0 12 7 25 14 SW 1023,1 14 0 0,0
16.02.2019 21:00:00 10,1 3,8 9,0 5,9 5,8 5,0 11 6 33 18 WSW 1023,1 14 0 0,0
16.02.2019 20:00:00 10,5 2,9 8,6 5,5 6,0 5,0 14 7 28 15 WSW 1023,1 17 0 0,0
16.02.2019 19:00:00 10,1 2,6 8,2 5,9 6,3 5,0 12 7 23 12 SW 1022,8 19 0 0,0
16.02.2019 18:00:00 10,3 2,8 8,1 6,6 6,5 5,0 8 5 21 11 SSW 1022,3 21 0 0,0
16.02.2019 17:00:00 12,0 2,8 10,0 8,2 6,6 5,0 11 6 21 11 SSW 1021,8 24 40 0,0
16.02.2019 16:00:00 12,7 2,4 11,4 9,9 6,4 5,0 12 7 25 13 SSW 1022,0 28 59 0,0
16.02.2019 15:00:00 13,3 2,0 13,2 11,0 5,8 5,0 14 7 32 17 SW 1022,1 26 60 0,0
16.02.2019 14:00:00 13,8 0,9 14,9 11,7 5,0 5,0 12 6 27 15 SW 1022,4 12 60 0,0
16.02.2019 13:00:00 12,7 1,5 14,4 10,2 4,2 5,0 16 9 31 17 SW 1022,8 13 60 0,0
16.02.2019 12:00:00 11,3 0,6 12,3 8,0 3,5 5,0 21 11 29 16 SSW 1023,0 31 60 0,0
16.02.2019 11:00:00 10,0 0,5 11,1 5,6 3,0 5,0 12 6 29 16 SSW 1023,3 34 60 0,0
16.02.2019 10:00:00 8,2 -0,7 8,6 2,9 2,8 5,0 18 10 30 16 SSW 1023,6 37 60 0,0
16.02.2019 09:00:00 6,4 -0,8 5,2 1,8 2,8 5,0 13 7 22 12 S 1023,8 35 60 0,0
16.02.2019 08:00:00 5,3 -0,8 4,1 1,6 2,9 5,0 16 8 28 15 S 1023,9 35 9 0,0
16.02.2019 07:00:00 5,4 -0,6 4,2 1,5 3,0 5,0 17 9 28 15 S 1023,8 34 0 0,0
16.02.2019 06:00:00 5,0 -0,1 3,5 1,4 3,1 5,0 15 8 25 14 S 1024,1 34 0 0,0
16.02.2019 05:00:00 4,8 0,0 3,6 1,6 3,2 5,0 17 9 25 14 S 1024,7 29 0 0,0
16.02.2019 04:00:00 5,7 -0,1 4,0 1,6 3,4 5,0 13 7 25 13 S 1025,2 33 0 0,0
16.02.2019 03:00:00 6,4 0,0 4,8 1,6 3,5 5,0 13 7 22 12 S 1025,9 33 0 0,0
16.02.2019 02:00:00 6,7 0,0 4,5 1,5 3,8 5,0 10 5 16 9 SSE 1026,8 35 0 0,0
16.02.2019 01:00:00 6,6 0,2 3,2 1,8 4,0 5,0 7 4 15 8 SSE 1027,4 34 0 0,0
16.02.2019 00:00:00 7,1 0,4 5,0 2,3 4,3 5,0 8 5 18 10 S 1027,7 36 0 0,0
15.02.2019 23:00:00 7,5 0,4 5,9 2,9 4,5 5,0 12 6 20 11 S 1028,3 31 0 0,0
15.02.2019 22:00:00 7,5 0,3 5,3 3,0 4,7 5,0 10 5 19 10 S 1028,7 28 0 0,0
15.02.2019 21:00:00 8,1 0,5 6,5 3,6 5,0 5,0 14 8 21 11 S 1029,1 29 0 0,0
15.02.2019 20:00:00 8,7 0,8 7,0 3,9 5,3 5,0 14 7 21 11 S 1029,5 23 0 0,0
15.02.2019 19:00:00 9,0 0,3 5,7 4,2 5,6 5,0 8 4 16 9 SSE 1030,0 25 0 0,0
15.02.2019 18:00:00 10,3 0,5 8,0 5,3 5,9 5,0 10 6 16 9 S 1030,3 25 0 0,0
15.02.2019 17:00:00 11,9 1,0 9,3 6,6 6,0 5,0 7 4 16 9 S 1030,4 26 43 0,0
15.02.2019 16:00:00 12,4 -1,4 10,4 8,4 5,9 5,0 9 5 15 8 SSW 1031,2 36 60 0,0
15.02.2019 15:00:00 8,9 1,5 10,1 9,8 5,4 5,0 5 3 13 7 SW 1031,7 13 60 0,0
15.02.2019 14:00:00 10,6 0,7 13,2 10,3 4,6 5,0 11 6 21 12 SSW 1032,3 14 60 0,0
15.02.2019 13:00:00 10,8 -0,5 12,4 8,8 3,9 5,0 12 7 20 11 SSW 1032,6 10 60 0,0
15.02.2019 12:00:00 9,2 1,9 10,4 6,6 3,3 5,0 7 4 13 7 SSW 1033,3 12 60 0,0
15.02.2019 11:00:00 6,8 1,4 7,5 4,2 2,9 5,0 7 4 16 8 SSW 1033,6 9 60 0,0
15.02.2019 10:00:00 4,4 0,9 4,2 1,7 2,8 5,0 9 5 15 8 S 1033,6 7 60 0,0
15.02.2019 09:00:00 2,4 0,4 1,1 0,6 3,0 4,9 9 5 14 8 S 1033,4 6 51 0,0
15.02.2019 08:00:00 1,6 0,0 0,2 0,2 3,2 4,9 8 4 14 8 S 1033,3 4,7 0 0,0
15.02.2019 07:00:00 1,4 0,2 0,2 0,5 3,5 4,9 9 5 12 6 S 1033,1 4,4 0 0,0
15.02.2019 06:00:00 1,5 0,6 0,6 1,0 3,8 4,9 11 6 16 9 SSW 1033,2 4,0 0 0,0
15.02.2019 05:00:00 1,1 1,1 0,7 1,8 4,0 4,9 10 5 14 7 SSW 1033,1 0,4 0 0,0
15.02.2019 04:00:00 2,1 2,1 2,0 3,0 4,1 4,9 3 1 6 3 S 1033,4 0,1 0 0,0
15.02.2019 03:00:00 2,5 2,5 2,7 3,3 4,1 4,9 5 3 12 6 N 1033,6 0,1 0 0,0
15.02.2019 02:00:00 3,2 3,1 3,0 3,3 4,1 4,9 9 5 13 7 NW 1033,5 0,2 0 0,0
15.02.2019 01:00:00 3,7 3,5 3,4 3,1 4,2 4,8 8 5 18 10 WNW 1033,6 1,4 0 0,0
15.02.2019 00:00:00 3,9 3,4 3,2 2,5 4,4 4,8 16 9 22 12 WNW 1033,6 1,7 0 0,0
14.02.2019 23:00:00 3,6 2,9 1,9 1,9 4,7 4,8 14 8 19 10 NW 1033,7 2,1 0 0,0
14.02.2019 22:00:00 4,2 2,5 2,3 2,5 5,0 4,8 18 10 25 14 W 1033,4 6 0 0,0
14.02.2019 21:00:00 5,7 2,3 3,9 3,2 5,3 4,8 19 11 31 17 W 1033,1 11 0 0,0
14.02.2019 20:00:00 7,4 2,7 5,7 3,6 5,6 4,8 10 6 23 12 WSW 1033,2 9 0 0,0
14.02.2019 19:00:00 7,0 4,0 5,4 4,0 6,0 4,8 11 6 14 7 SSW 1033,1 7 0 0,0
14.02.2019 18:00:00 7,5 4,5 5,2 4,8 6,4 4,8 8 4 15 8 SSW 1032,9 7 0 0,0
14.02.2019 17:00:00 8,5 4,9 6,5 6,1 6,6 4,8 8 4 16 9 SW 1032,9 7 43 0,0
14.02.2019 16:00:00 6,3 3,9 5,7 7,6 6,6 4,7 7 4 19 10 W 1033,4 5 60 0,0
14.02.2019 15:00:00 8,2 4,5 8,9 8,8 6,4 4,7 11 6 19 11 SW 1033,5 5 40 0,0
14.02.2019 14:00:00 7,4 4,2 8,0 8,7 6,2 4,7 13 7 23 12 SW 1034,0 5 1 0,0
14.02.2019 13:00:00 6,9 4,0 7,7 8,5 6,0 4,7 12 7 23 13 SSW 1034,2 6 1 0,0
14.02.2019 12:00:00 7,0 3,9 8,6 8,1 5,6 4,7 11 6 24 13 SW 1034,2 5 40 0,0
14.02.2019 11:00:00 7,1 3,8 8,9 7,4 5,4 4,7 14 7 24 13 W 1034,0 6 34 0,0
14.02.2019 10:00:00 6,6 4,0 6,9 6,1 5,3 4,7 11 6 27 15 WSW 1034,0 5 0 0,0
14.02.2019 09:00:00 6,4 3,9 6,2 5,5 5,3 4,7 14 7 29 15 WSW 1034,0 4,6 0 0,0
14.02.2019 08:00:00 6,5 3,8 6,2 5,3 5,3 4,7 15 8 28 15 SW 1033,7 6 0 0,0
14.02.2019 07:00:00 6,6 4,1 6,2 5,4 5,4 4,6 13 7 28 15 W 1033,3 6 0 0,0
14.02.2019 06:00:00 6,7 4,1 6,3 5,5 5,4 4,6 19 10 37 20 W 1032,9 6 0 0,0
14.02.2019 05:00:00 6,8 4,5 6,4 5,6 5,5 4,6 20 11 41 22 W 1032,9 6 0 0,0
14.02.2019 04:00:00 7,0 4,8 6,7 5,8 5,5 4,6 21 11 38 20 W 1032,6 6 0 0,0
14.02.2019 03:00:00 7,1 5,2 6,7 6,0 5,6 4,6 21 12 38 21 W 1032,6 4,5 0 0,0
14.02.2019 02:00:00 7,3 5,6 7,0 6,1 5,6 4,6 21 11 45 24 W 1032,4 6 0 0,0
14.02.2019 01:00:00 7,4 5,4 7,1 6,2 5,6 4,6 31 17 45 25 W 1032,3 6 0 0,0
14.02.2019 00:00:00 7,5 5,6 7,2 6,3 5,6 4,6 23 12 38 21 W 1032,1 9 0 0,0
13.02.2019 23:00:00 7,5 6,4 7,2 6,5 5,6 4,6 19 10 35 19 WSW 1031,6 6 0 0,0
13.02.2019 22:00:00 7,7 6,4 7,5 6,6 5,6 4,6 20 11 37 20 WSW 1031,6 7 0 0,0
13.02.2019 21:00:00 7,8 6,5 7,6 6,6 5,5 4,6 21 11 39 21 W 1031,1 7 0 0,0
13.02.2019 20:00:00 7,9 6,7 7,6 6,6 5,5 4,6 18 10 39 21 W 1031,0 8 0 0,0
13.02.2019 19:00:00 8,0 6,7 7,7 6,7 5,5 4,6 20 11 37 20 WSW 1030,5 13 0 0,0
13.02.2019 18:00:00 8,0 6,7 7,8 6,7 5,5 4,6 16 9 38 20 WSW 1030,3 8 0 0,0
13.02.2019 17:00:00 8,4 6,7 8,0 6,8 5,4 4,6 18 10 43 23 WSW 1030,1 13 0 0,0
13.02.2019 16:00:00 8,5 6,6 8,1 7,2 5,3 4,6 25 13 49 26 W 1029,5 13 0 0,0
13.02.2019 15:00:00 8,3 6,3 8,2 7,3 5,0 4,6 33 18 54 29 W 1029,3 16 0 0,0
13.02.2019 14:00:00 6,0 5,0 6,6 6,8 4,9 4,6 27 14 34 19 W 1029,1 10 0 0,0
13.02.2019 13:00:00 6,1 5,1 6,7 6,9 4,7 4,6 31 17 42 23 W 1028,9 10 0 0,0
13.02.2019 12:00:00 6,0 5,1 6,4 6,2 4,5 4,6 27 15 42 23 W 1028,9 8 0 0,0
13.02.2019 11:00:00 5,9 5,0 6,2 6,1 4,4 4,6 32 17 48 26 W 1028,1 7 0 0,0
13.02.2019 10:00:00 6,0 5,0 6,3 5,9 4,2 4,6 33 18 52 28 W 1027,8 8 0 0,0
13.02.2019 09:00:00 6,7 5,6 6,6 5,6 4,0 4,6 33 18 55 30 W 1027,5 9 0 0,0
13.02.2019 08:00:00 6,9 5,7 6,7 5,3 3,9 4,6 25 14 49 26 WSW 1027,2 8 0 0,0
13.02.2019 07:00:00 6,7 5,4 6,4 5,0 3,7 4,6 27 15 49 26 W 1026,9 7 0 0,0
13.02.2019 06:00:00 6,1 5,1 5,8 4,7 3,6 4,6 29 16 53 29 W 1026,6 4,4 0 0,0
13.02.2019 05:00:00 6,0 4,8 5,8 4,5 3,4 4,6 30 16 50 27 W 1026,5 6 0 0,0
13.02.2019 04:00:00 6,0 4,1 5,7 4,3 3,3 4,6 29 16 52 28 W 1027,2 8 0 0,0
13.02.2019 03:00:00 6,1 3,7 5,8 3,9 3,2 4,6 23 12 44 24 WSW 1026,7 11 0 0,0
13.02.2019 02:00:00 6,0 3,2 5,5 3,6 3,1 4,6 23 12 48 26 WSW 1027,1 12 0 0,0
13.02.2019 01:00:00 5,9 3,0 5,3 3,3 3,0 4,6 24 13 42 23 W 1027,9 13 0 0,0
13.02.2019 00:00:00 5,7 2,5 5,0 3,1 2,9 4,6 16 9 34 18 SW 1028,0 17 0 0,0
12.02.2019 23:00:00 5,5 2,0 4,9 2,8 2,8 4,6 14 8 31 17 SW 1028,3 26 0 0,0
12.02.2019 22:00:00 4,6 0,7 4,1 2,3 2,8 4,6 15 8 22 12 SSW 1028,4 49 0 0,0
12.02.2019 21:00:00 4,0 0,7 3,1 2,2 2,8 4,6 10 6 25 13 SSW 1028,8 34 0 0,0
12.02.2019 20:00:00 3,4 -0,7 3,0 1,8 2,9 4,6 11 6 21 11 SSW 1029,1 41 0 0,0
12.02.2019 19:00:00 3,5 -0,3 2,7 1,5 3,1 4,6 9 5 17 9 SW 1029,4 35 0 0,0
12.02.2019 18:00:00 3,1 0,7 1,7 1,4 3,3 4,7 15 8 23 13 W 1029,3 29 0 0,0
12.02.2019 17:00:00 3,3 0,2 2,2 2,3 3,5 4,7 18 10 27 15 W 1028,9 29 42 0,0

tt = Température de l'air
td = dewpoint
tt 5cm = Température de l'air 5cm
tt -5cm = Température de l'air -5cm
tt -20cm = Température de l'air -20cm
tt -100cm = Température de l'air -100cm
ff = Vitesse du vent
fx = gusts
dd = Direction du vent
ppp = reduced air pressure
vv = visibility
sd = Ensoleillement
rr = Quantités de précipitations

stations d'obs. à proximité